TimeCST,TemperatureF,Dew PointF,Humidity,Sea Level PressureIn,VisibilityMPH,Wind Direction,Wind SpeedMPH,Gust SpeedMPH,PrecipitationIn,Events,Conditions,WindDirDegrees,DateUTC
12:53 AM,69.1,68.0,96,30.05,4.0,SSE,4.6,-,N/A,,Overcast,160,2012-12-04 06:53:00
1:17 AM,69.8,68.0,94,30.04,1.0,SSE,5.8,-,N/A,,Mist,160,2012-12-04 07:17:00
1:34 AM,69.8,68.0,94,30.04,0.5,SE,5.8,-,N/A,Fog,Fog,140,2012-12-04 07:34:00
1:53 AM,69.1,68.0,96,30.06,0.5,SSE,4.6,-,N/A,Fog,Fog,160,2012-12-04 07:53:00
2:05 AM,69.8,68.0,94,30.04,1.2,SSE,4.6,-,N/A,,Overcast,150,2012-12-04 08:05:00
2:53 AM,68.0,66.9,96,30.08,1.0,Calm,Calm,-,N/A,,Overcast,0,2012-12-04 08:53:00
3:53 AM,69.1,68.0,96,30.08,0.8,ESE,5.8,-,N/A,,Mist,110,2012-12-04 09:53:00
4:53 AM,69.1,68.0,96,30.09,0.5,Calm,Calm,-,N/A,Fog,Fog,0,2012-12-04 10:53:00
5:08 AM,69.8,66.2,88,30.08,0.2,Calm,Calm,-,N/A,Fog,Fog,0,2012-12-04 11:08:00
5:53 AM,68.0,68.0,100,30.10,0.2,Calm,Calm,-,N/A,Fog,Fog,0,2012-12-04 11:53:00
6:53 AM,68.0,66.9,96,30.11,0.5,Calm,Calm,-,N/A,Fog,Fog,0,2012-12-04 12:53:00
6:57 AM,68.0,66.2,94,30.09,0.2,Calm,Calm,-,N/A,Fog,Fog,0,2012-12-04 12:57:00
7:07 AM,68.0,66.2,94,30.10,0.0,Calm,Calm,-,N/A,Fog,Fog,0,2012-12-04 13:07:00
7:22 AM,68.0,66.2,94,30.10,0.0,Calm,Calm,-,N/A,Fog,Fog,0,2012-12-04 13:22:00
7:53 AM,66.9,66.0,97,30.13,0.0,Calm,Calm,-,N/A,Fog,Fog,0,2012-12-04 13:53:00
8:53 AM,70.0,69.1,97,30.14,0.1,SE,3.5,-,N/A,Fog,Fog,130,2012-12-04 14:53:00
9:00 AM,71.6,69.8,94,30.13,0.1,Calm,Calm,-,N/A,,Scattered Clouds,0,2012-12-04 15:00:00
9:04 AM,71.6,69.8,94,30.14,0.2,Calm,Calm,-,N/A,Fog,Fog,0,2012-12-04 15:04:00
9:28 AM,71.6,69.8,94,30.15,2.0,Calm,Calm,-,N/A,,Mostly Cloudy,0,2012-12-04 15:28:00
9:53 AM,72.0,71.1,97,30.17,10.0,Calm,Calm,-,N/A,,Mostly Cloudy,0,2012-12-04 15:53:00
10:05 AM,75.2,71.6,89,30.15,10.0,Calm,Calm,-,N/A,,Scattered Clouds,0,2012-12-04 16:05:00
10:53 AM,77.0,70.0,79,30.17,10.0,WSW,5.8,-,N/A,,Scattered Clouds,250,2012-12-04 16:53:00
11:07 AM,78.8,69.8,74,30.14,10.0,West,6.9,-,N/A,,Mostly Cloudy,260,2012-12-04 17:07:00
11:14 AM,78.8,68.0,69,30.14,10.0,WSW,8.1,-,N/A,,Mostly Cloudy,240,2012-12-04 17:14:00
11:53 AM,80.1,66.9,64,30.13,10.0,SW,9.2,-,N/A,,Scattered Clouds,220,2012-12-04 17:53:00
12:53 PM,81.0,62.1,52,30.10,10.0,WSW,9.2,-,N/A,,Mostly Cloudy,240,2012-12-04 18:53:00
1:53 PM,80.1,63.0,56,30.08,10.0,WNW,6.9,-,N/A,Thunderstorm,Thunderstorm,300,2012-12-04 19:53:00
2:53 PM,70.0,64.9,84,30.11,10.0,SW,16.1,19.6,N/A,Rain-Thunderstorm,Light Thunderstorms and Rain,230,2012-12-04 20:53:00
3:05 PM,66.2,62.6,88,30.12,1.0,West,19.6,32.2,0.28,Rain-Thunderstorm,Heavy Thunderstorms and Rain,260,2012-12-04 21:05:00
3:09 PM,68.0,62.6,83,30.10,1.0,NNE,20.7,26.5,0.56,Rain-Thunderstorm,Heavy Thunderstorms and Rain,20,2012-12-04 21:09:00
3:10 PM,69.8,60.8,73,30.09,0.5,NNE,18.4,26.5,0.56,Rain-Thunderstorm,Heavy Thunderstorms with Small Hail,30,2012-12-04 21:10:00
3:15 PM,71.6,60.8,69,30.08,1.0,NNE,20.7,28.8,0.57,Rain-Thunderstorm,Thunderstorms and Rain,20,2012-12-04 21:15:00
3:23 PM,73.4,59.0,61,30.08,10.0,North,10.4,28.8,0.57,Rain-Thunderstorm,Thunderstorms and Rain,360,2012-12-04 21:23:00
3:53 PM,69.1,61.0,75,30.12,10.0,Calm,Calm,-,0.59,Rain-Thunderstorm,Light Thunderstorms and Rain,0,2012-12-04 21:53:00
4:53 PM,66.9,63.0,87,30.11,10.0,Calm,Calm,-,0.02,Rain-Thunderstorm,Light Thunderstorms and Rain,0,2012-12-04 22:53:00
5:53 PM,66.0,63.0,90,30.11,10.0,Calm,Calm,-,0.02,Rain,Light Rain,0,2012-12-04 23:53:00
6:53 PM,66.9,64.0,90,30.14,10.0,Calm,Calm,-,0.00,Rain,Light Rain,0,2012-12-05 00:53:00
7:53 PM,66.0,63.0,90,30.17,10.0,SSW,3.5,-,0.00,,Mostly Cloudy,200,2012-12-05 01:53:00
8:53 PM,64.9,63.0,93,30.16,9.0,South,3.5,-,N/A,,Mostly Cloudy,170,2012-12-05 02:53:00
9:53 PM,66.0,64.0,93,30.18,10.0,Calm,Calm,-,0.01,,Mostly Cloudy,0,2012-12-05 03:53:00
10:53 PM,64.9,64.0,97,30.16,8.0,Calm,Calm,-,0.01,,Overcast,0,2012-12-05 04:53:00
11:53 PM,64.0,63.0,96,30.15,5.0,Calm,Calm,-,N/A,,Mostly Cloudy,0,2012-12-05 05:53:00